Location: Unspecified
(42.9300°N, 71.1866°W)
Time: 01:54:11
(UTC-04:00)

Cosmos 2058 - Visible Passes

Search period start: 22 August 2014 00:00
Search period end: 01 September 2014 00:00
Orbit: 570 x 594 km, 82.5° (Epoch: 21 August)

Date Brightness Start Highest point End Pass type
(mag) Time Alt. Az. Time Alt. Az. Time Alt. Az.
22 Aug 5.9 01:18:49 10° NNW 01:19:04 11° NNW 01:19:04 11° NNW visible
22 Aug 5.7 23:47:38 10° NNE 23:48:22 14° NNE 23:48:22 14° NNE visible
23 Aug 5.7 23:53:14 10° N 23:54:03 15° NNE 23:54:03 15° NNE visible
24 Aug 5.7 23:58:56 10° N 23:59:45 15° N 23:59:45 15° N visible
26 Aug 5.8 00:04:42 10° N 00:05:27 15° N 00:05:27 15° N visible
27 Aug 5.9 00:10:33 10° NNW 00:11:09 14° NNW 00:11:09 14° NNW visible
28 Aug 6.0 00:16:29 10° NNW 00:16:52 12° NNW 00:16:52 12° NNW visible
28 Aug 5.7 22:45:57 10° NNE 22:46:12 11° NNE 22:46:12 11° NNE visible
29 Aug 6.1 00:22:30 10° NNW 00:22:35 11° NNW 00:22:35 11° NNW visible
29 Aug 5.7 22:51:23 10° NNE 22:51:56 13° NNE 22:51:56 13° NNE visible
30 Aug 5.6 22:56:58 10° N 22:57:40 14° NNE 22:57:40 14° NNE visible
31 Aug 5.6 23:02:38 10° N 23:03:25 15° N 23:03:25 15° N visible
